www.pogodaiklimat.ru

Погода и климат >> Архив погоды >> Западная Сахара >> Дахла


ПОГОДА в Дахле

  • Прогноз погоды в Дахле
  • Монитор погоды в Дахле

АРХИВ ПОГОДЫ в Дахле

Время (UTC), дата Ветер
(напр.,м/с)
 
Видим.   Явления Облачность Т
(С)
Тd
(С)
f
(%)
Тe
(С)
Тes
(С)
Комфортность P
(гПа)
Po
(гПа)
Тmin
(С)
Tmax
(С)
R
(мм)
R24
(мм)
S
(см)
21 11.09 С 11-15
{19}
8000 м ясно +21.3 +16.7 75 +25 +25 комфорт 1015.3 1014.0
06 12.09 СВ 9-11
{17}
8000 м ясно +19.9 +16.5 81 +22 +22 комфорт 1015.3 1014.0 +19.9
09 12.09 В 8-10
{12}
10 км 3/3 300 м
[Sc]
+21.4 +16.1 72 +25 +26 комфорт 1017.2 1015.8
12 12.09 СВ 12-15
{16}
10 км ясно +24.1 +15.6 59 +27 +27 жарко 1017.4 1016.1
15 12.09 С 10-12
{17}
10 км ясно +23.4 +16.9 67 +29 +29 душно 1015.0 1013.6
18 12.09 С 9-12
{14}
8000 м ясно +22.1 +18.1 78 +27 +27 душно 1014.6 1013.2 +25.3
21 12.09 С 8-10
{12}
6000 м ясно +20.4 +18.3 88 +24 +24 комфорт 1016.0 1014.7
06 13.09 С 8-10
{12}
6000 м 5/5 240 м
[St]
+19.8 +18.3 91 +22 +22 комфорт 1014.7 1013.4 +19.6
09 13.09 В 8-10
{12}
10 км 6/6 300 м
[Sc]
+20.8 +17.8 83 +24 +25 комфорт 1015.9 1014.6
12 13.09 С 11-13
{15}
10 км ясно +24.4 +17.1 64 +28 +28 душно 1016.2 1014.9
15 13.09 С 11-14
{14}
10 км ясно +23.7 +18.1 71 +28 +28 душно 1014.4 1013.0
18 13.09 С 9-12
{13}
10 км ясно +22.2 +18.8 81 +28 +28 душно 1015.0 1013.6 +25.0
21 13.09 С 8-10
{11}
8000 м ясно +20.6 +18.4 87 +24 +24 комфорт 1016.1 1014.7
06 14.09 В 8-10
{11}
8000 м ясно +20.1 +18.2 89 +23 +23 комфорт 1014.9 1013.5 +19.9
09 14.09 В 9-10
{11}
10 км 5/5 300 м
[St]
+20.7 +18.1 85 +24 +24 комфорт 1016.3 1014.9
12 14.09 С 8-10
{11}
10 км ясно +23.4 +18.1 72 +29 +32 душно 1015.4 1014.0
15 14.09 С 10-11
{12}
10 км ясно +23.4 +17.6 70 +29 +30 душно 1013.5 1012.2
18 14.09 С 10-12
{13}
10 км ясно +23.3 +17.7 71 +29 +29 душно 1013.8 1012.5 +24.5
21 14.09 СВ 9-12
{13}
8000 м ясно +21.5 +18.9 85 +26 +26 душно 1015.3 1014.0
06 15.09 С 8-9
{12}
8000 м ясно +20.7 +17.9 84 +24 +24 комфорт 1013.6 1012.3 +20.5
09 15.09 С 7-9
{11}
8000 м 6/0
[Ac cast]
+22.4 +17.8 75 +27 +28 душно 1014.6 1013.3
12 15.09 С 8-10
{11}
10 км 6/0
[Ac cast]
+25.6 +17.5 61 +30 +31 душно 1014.5 1013.2
15 15.09 С 9-10
{11}
10 км 3/0
[Ac cast]
+24.9 +18.1 66 +29 +30 душно 1012.7 1011.3
18 15.09 С 10-12
{12}
8000 м 3/0
[Ac cast]
+23.8 +17.8 69 +28 +28 душно 1012.6 1011.2 +26.9
21 15.09 С 8-10
{12}
8000 м ясно +21.5 +18.1 81 +26 +26 душно 1013.2 1011.8
06 16.09 С 7 6000 м ясно +20.9 +18.1 84 +25 +25 комфорт 1012.8 1011.4 +21.0
09 16.09 СВ 6-8
{9}
10 км ясно +22.5 +18.7 79 +28 +30 душно 1014.4 1013.0
12 16.09 СВ 10-13
{14}
10 км ясно +25.0 +18.0 65 +29 +30 душно 1014.4 1013.0
15 16.09 С 9-11
{12}
10 км ясно +30.5 +16.9 44 +34 +36 очень
душно
1011.6 1010.3
18 16.09 С 8-11
{13}
10 км ясно +22.7 +15.4 63 +27 +27 душно 1010.9 1009.6 +33.8
21 16.09 С 9-11
{13}
6000 м ясно +22.8 +18.6 77 +29 +29 очень
душно
1013.1 1011.8
06 17.09 С 7-9
{12}
6000 м ясно +20.7 +18.1 85 +24 +24 комфорт 1012.9 1011.5 +21.2
09 17.09 В 8-10
{13}
8000 м 5/0 300 м
[Ac cast]
+23.2 +18.9 77 +29 +30 душно 1013.9 1012.6
12 17.09 СВ 9-11
{12}
10 км 4/0
[Ac cast]
+25.3 +18.7 67 +30 +31 душно 1013.9 1012.5
15 17.09 С 10-11
{13}
10 км ясно +24.0 +19.1 74 +29 +30 душно 1012.1 1010.7
18 17.09 С 12-13
{14}
8000 м ясно +24.2 +18.2 69 +29 +29 душно 1011.9 1010.5 +26.4
21 17.09 С 9-12
{13}
8000 м ясно +21.7 +18.5 82 +26 +26 душно 1012.5 1011.1
06 18.09 С 7-8
{9}
6000 м ясно +20.4 +18.3 88 +24 +24 комфорт 1012.0 1010.6 +20.2
09 18.09 С 10-12
{13}
8000 м ясно +21.6 +18.4 82 +26 +26 душно 1013.2 1011.8
12 18.09 СВ 9-10
{13}
10 км ясно +24.2 +18.4 70 +29 +31 душно 1013.9 1012.5
15 18.09 С 10-12
{13}
10 км ясно +25.2 +17.9 64 +30 +30 душно 1012.2 1010.8
18 18.09 С 12-14
{14}
10 км ясно +22.8 +17.9 74 +28 +28 душно 1012.1 1010.7 +25.7

 

Местоположение метеостанции Дахла (Западная Сахара): широта 23.72 долгота -15.93 высота над уровнем моря 12 м.

В архиве по умолчанию представлена погода в Дахле за последнюю неделю. Архивные данные за месяц целиком и за предыдущие месяцы, начиная с января 2011 года, Вы можете получить, выбрав интересующий диапазон дат из раскрывающегося списка и нажав кнопку "Ввод!".


*Определитесь, кто Вы:
робот инопланетянин человек

Внимание! Время в таблицах - всемирное. Для получения местного времени необходимо прибавить поправку, которая равна 0 ч.

Смотрите также архив погоды в соседних городах и на ближайших метеорологических станциях:

Погода в Нуадибу (Мавритания) (330 км)
Погода в Зуэрате (Мавритания) (369 км)
Погода в Пуэрто-де-Могане (Канарские Острова) (456 км)
Погода в Атаре (Мавритания) (463 км)
Погода в Бир-Могрейне (Мавритания) (468 км)
Погода в Акжужте (Мавритания) (470 км)
Погода в Гран-Канарии (Канарские Острова) (471 км)
Погода в Аэропорту Рейна-София (Канарские Острова) (486 км)
Погода в Лас-Пальмас-де-Гран-Канарии (Канарские Острова) (489 км)
Погода в Лас-Пальмас-де-Гран-Канарии 2 (Канарские Острова) (491 км)

Пояснения к столбцам:

Ветер - указаны скорость ветра в м/с - средняя за 10 мин, порывы в срок и между сроками (в фигурных скобках) и направление, откуда дует ветер: С - северный, СВ - северо-восточный, В - восточный, ЮВ - юго-восточный, Ю - южный, ЮЗ - юго-западный, З - западный, СЗ - северо-западный.
Видимость - горизонтальная дальность видимости в метрах или километрах. При видимости от 1 до 10 км при отсутствии осадков обычно наблюдается дымка, при ухудшении видимости до 1 км и менее - туман. В сухую погоду видимость может ухудшаться дымом, пылью или мглою.
Явления - указаны атмосферные явления, наблюдавшиеся в срок или в последний час перед сроком; фигурными скобками обозначены явления, наблюдавшиеся между сроками (за 1-3 часа до срока); квадратными скобками обозначены град или гололедные отложения с указанием их диаметра в мм.
Облачность - указаны через наклонную черту общая и нижняя облачность в баллах и высота нижней границы облаков в метрах; квадратными скобками обозначены формы облаков: Ci - перистые, Cs - перисто-слоистые, Cc - перисто-кучевые, Ac - высококучевые, As - высокослоистые, Sc - слоисто-кучевые, Ns - слоисто-дождевые, Cu - кучевые, Cb - кучево-дождевые. Подробнее классификацию облаков см. в Атласе облаков (PDF).
T - Температура воздуха - температура, измеренная на высоте 2 м над землей.
Td - Температура точки росы - температура, при понижении до которой содержащийся в воздухе водяной пар достигнет насыщения.
f - Относительная влажность воздуха - влажноcть воздуха, измеренная на высоте 2 м над землей.
Te - Эффективная температура - температура, которую ощущает одетый по сезону человек в тени. Характеристика душности погоды. При расчете учитывается влияние влажности воздуха и скорости ветра на теплоощущения человека.
Tes - Эффективная температура на солнце - температура, которую ощущает человек, с поправкой на солнечный нагрев. Характеристика знойности погоды. Зависит от высоты солнца над горизонтом, облачности и скорости ветра. Ночью, в пасмурную погоду, а также при ветре 12 м/с и более поправка равна нулю.
P - Атмосферное давление - приведенное к уровню моря атмосферное давление.
Po - Атмосферное давление - измеренное на уровне метеостанции атмосферное давление.
Tmin - Минимальная температура - минимум температуры воздуха на высоте 2 м над землей.
Tmax - Максимальная температура - максимум температуры воздуха на высоте 2 м над землей.
R - Количество осадков - Количество выпавших осадков за период времени, мм. При наведении курсора мыши на число - период времени, за который выпало указанное количество осадков.
R24 - Количество осадков - Количество выпавших осадков за 24 часа, мм.
S - Снежный покров - Высота снежного покрова, см. При наведении курсора мыши на число - состояние снежного покрова и степень покрытия местности в баллах.